Hourly Data Report for January 09, 2005

TORONTO CITY
ONTARIO

43°40'00.000" N
79°24'00.000" W
112.50 m
6158355
71508
XTO

Download Data

Hourly Data (January 2005)
Hourly Data Report for January 9, 2005
TIME
LST
Temp Definition
°C
Dew Point Definition
°C
Rel Hum Definition
%
Precip. Amount Definition
mm

Wind Dir Definition
10's deg

Wind Spd Definition
km/h
Visibility Definition
km
Stn Press Definition
kPa
Hmdx Definition


Wind Chill Definition


Weather Definition


00:00 0.7 -3.7 72   LegendMM LegendMM   101.45     LegendNANA
01:00 0.7 -3.7 72   LegendMM LegendMM   101.45     LegendNANA
02:00 0.7 -3.5 73   LegendMM LegendMM   101.42     LegendNANA
03:00 0.2 -3.3 77   LegendMM LegendMM   101.48     LegendNANA
04:00 -0.3 -4.1 75   LegendMM LegendMM   101.45     LegendNANA
05:00 -0.2 -4.1 75   LegendMM LegendMM   101.45     LegendNANA
06:00 -0.3 -4.4 74   LegendMM LegendMM   101.41     LegendNANA
07:00 -0.5 -4.2 76   LegendMM LegendMM   101.41     LegendNANA
08:00 -0.5 -4.1 77   LegendMM LegendMM   101.40     LegendNANA
09:00 -0.5 -3.5 80   LegendMM LegendMM   101.38     LegendNANA
10:00 -0.3 -2.7 84   LegendMM LegendMM   101.38     LegendNANA
11:00 -0.2 -1.8 89   LegendMM LegendMM   101.33     LegendNANA
12:00 0.5 -0.5 93   LegendMM LegendMM   101.16     LegendNANA
13:00 0.8 0.0 94   LegendMM LegendMM   101.03     LegendNANA
14:00 0.9 -0.1 93   LegendMM LegendMM   100.94     LegendNANA
15:00 0.9 -0.1 93   LegendMM LegendMM   100.90     LegendNANA
16:00 1.0 -0.1 92   LegendMM LegendMM   100.89     LegendNANA
17:00 1.1 -0.1 92   LegendMM LegendMM   100.82     LegendNANA
18:00 1.5 0.2 91   LegendMM LegendMM   100.69     LegendNANA
19:00 2.0 0.2 88   LegendMM LegendMM   100.62     LegendNANA
20:00 2.1 -0.6 82   LegendMM LegendMM   100.48     LegendNANA
21:00 2.3 0.0 85   LegendMM LegendMM   100.36     LegendNANA
22:00 2.5 0.5 87   LegendMM LegendMM   100.24     LegendNANA
23:00 2.5 0.4 86   LegendMM LegendMM   100.09     LegendNANA

Notes on Data Quality.

Legend

  • E = Estimated
  • M = Missing
  • NA = Not Available*
  • [empty] = Indicates an unobserved value
Date modified: